Location: Unspecified
(47.4992°N, 121.7766°W)
Time: 03:32:52
(UTC-08:00)

Cosmos 2058 - Pass Details

Date: 30 January 2021
Orbit: 561 x 584 km, 82.5° (Epoch: 24 February)

Event Time Altitude Azimuth Distance (km) Brightness Sun altitude
Rises 05:41:51 0° 359° (N) 2,774 6.3 -19.2°
Reaches altitude 10° 05:44:16 10° 10° (N) 1,869 5.6 -18.8°
Maximum altitude 05:47:54 30° 73° (ENE) 1,030 4.8 -18.2°
Drops below altitude 10° 05:51:30 10° 135° (SE) 1,849 6.2 -17.6°
Sets 05:53:52 0° 146° (SSE) 2,739 7.0 -17.2°
